[[{"header":{"parameterUnit":"m.s-1","parameterCategory":1,"la1":30.2991,"la2":30.254,"lo1":-89.0895,"lo2":-89.0444,"dy":0.0017,"dx":0.0017,"nx":28,"ny":28,"refTime":"2025-08-23T09:00:00:Z","depth":0,"parameterNumber":2,"parameterNumberName":"U-component_of_WINDS"},"data":[0,0,0,0,0,0,0,0,0,0,0,0,0,0,0,0,0,0,0,0,0,0,0,0,0,0,0,0,0,0,0,0,0,0,0,0,0,0,0,0,0,0,0,0,0,0,0,0,0,0,0,0,0,0,0,0,0,0,1.6983,1.6983,0,1.7034,1.7035,1.7035,1.7005,1.7004,1.7002,1.7001,1.7053,1.7055,1.7058,0,0,0,0,0,0,0,0,0,0,0,0,0,1.6856,1.6858,1.6982,1.6983,1.6984,1.7034,1.7035,1.7036,1.7005,1.7004,1.7002,1.7,1.7052,1.7055,1.7058,0,0,0,0,0,0,0,0,0,0,0,0,0,1.6909,1.6859,1.6982,1.6975,1.6975,1.7034,1.7035,1.7036,1.7006,1.7004,1.7001,1.6999,1.7051,1.7055,1.7059,1.7128,0,0,1.7071,1.7073,0,0,0,0,0,0,0,0,1.6906,1.6914,1.6975,1.6975,1.6975,1.7011,1.7009,1.7067,1.7006,1.6994,1.7001,1.6998,1.704,1.7045,1.706,1.713,1.7132,1.7072,1.7074,1.7076,1.7077,0,0,0,0,0,0,0,1.6903,1.6912,1.7003,1.6976,1.6976,1.6968,1.6973,1.702,1.7029,1.6995,1.6993,1.6999,1.704,1.7056,1.7061,1.7133,1.7071,1.7075,1.7078,1.7079,1.7261,1.7263,0,0,0,0,0,0,1.69,1.6909,1.7001,1.7004,1.6935,1.6972,1.6978,1.7002,1.7028,1.703,1.7001,1.6998,1.705,1.7056,1.7062,1.7143,1.7076,1.708,1.7082,1.7258,1.7261,1.7264,0,0,0,0,0,0,1.6897,1.6908,1.6999,1.6956,1.6967,1.6977,1.7004,1.7004,1.702,1.7033,1.7034,1.7016,1.7048,1.7057,1.7111,1.7145,1.7081,1.7085,1.7256,1.7259,1.7263,1.7307,0,0,0,0,0,0,1.6894,1.6907,1.6934,1.6957,1.6969,1.7048,1.7006,1.7007,1.7027,1.7023,1.7047,1.7049,1.7047,1.7105,1.7115,1.7149,1.7088,1.7253,1.7257,1.7261,1.7302,1.7311,1.7319,0,0,0,0,0,1.6889,1.6945,1.6936,1.6947,1.7003,1.705,1.7057,1.7054,1.703,1.7056,1.7065,1.7048,1.714,1.7111,1.7122,1.7158,1.7251,1.7256,1.7261,1.7298,1.7309,1.7319,0,0,0,0,0,0,1.6926,1.6948,1.6938,1.7003,1.7025,1.7045,1.7078,1.7067,1.7096,1.7091,1.7086,1.7091,1.7148,1.7159,1.7126,1.7225,1.7191,1.7199,1.7216,1.7226,1.7235,1.723,1.7092,0,0,0,0,0,1.6942,1.6978,1.6995,1.7051,1.7062,1.7069,1.7089,1.7085,1.7107,1.7116,1.7129,1.715,1.7184,1.7206,1.7238,1.7304,1.7308,1.7334,1.7342,1.7349,1.7355,1.7389,1.74,1.7281,1.7281,1.7281,0,0,1.6974,1.6991,1.7014,1.7058,1.7075,1.7112,1.7077,1.7118,1.7144,1.7122,1.7174,1.7184,1.7208,1.7268,1.7296,1.7279,1.7389,1.7356,1.7361,1.7364,1.7395,1.7407,1.7417,1.7285,1.7284,1.7284,0,0,1.7052,1.7069,1.7116,1.7133,1.7159,1.7163,1.7174,1.7196,1.7201,1.7254,1.7237,1.7269,1.7328,1.7345,1.7361,1.7445,1.743,1.7455,1.7498,1.7531,1.754,1.7549,1.7576,1.7586,1.7462,1.7462,1.7462,0,1.7089,1.7144,1.7142,1.7184,1.7203,1.7185,1.7232,1.7249,1.7283,1.7296,1.7278,1.7349,1.7364,1.7427,1.7448,1.7462,1.7474,1.7452,1.754,1.7548,1.7555,1.7581,1.7592,1.7465,1.7464,1.7464,1.7464,0,1.7187,1.7226,1.7261,1.7295,1.7318,1.7363,1.7366,1.739,1.7384,1.7389,1.7441,1.7459,1.7493,1.7508,1.7503,1.757,1.7559,1.754,1.7505,1.7569,1.7594,1.7604,1.7469,1.7468,1.7467,1.7466,0,0,1.7289,1.732,1.7333,1.7347,1.7374,1.7403,1.7446,1.748,1.7499,1.7524,1.7558,1.7608,1.759,1.7609,1.7606,1.7635,1.7697,1.7612,1.7613,1.7625,1.7769,1.7782,1.7793,1.7688,1.769,1.7692,1.7767,0,1.7366,1.7441,1.744,1.7509,1.7544,1.7528,1.7565,1.7584,1.7591,1.762,1.7627,1.7661,1.7637,1.7648,1.7676,1.7684,1.7726,1.7679,1.7718,1.772,1.7711,1.7807,1.782,1.789,1.7776,1.7778,1.7779,0,1.7466,1.7494,1.7567,1.7587,1.7602,1.7635,1.7665,1.7694,1.7716,1.7718,1.7739,1.7731,1.7773,1.7739,1.7796,1.7764,1.778,1.7786,1.7789,1.7791,1.7752,1.7809,1.7912,1.7922,1.7795,1.7794,1.7792,0,1.753,1.7585,1.7636,1.7649,1.7674,1.7698,1.771,1.7729,1.7749,1.7775,1.7787,1.7818,1.7835,1.7858,1.7858,1.7833,1.7915,1.7881,1.7916,1.7916,1.7932,1.7931,1.8037,1.7947,1.7947,1.7947,1.7946,0,1.7615,1.766,1.7664,1.7695,1.7744,1.7742,1.779,1.7799,1.7817,1.7848,1.7837,1.7866,1.7865,1.7894,1.7895,1.7941,1.7949,1.795,1.7949,1.795,1.795,1.7959,1.7953,1.7949,1.7949,1.7948,1.7948,0,1.7693,1.7698,1.7752,1.7772,1.7778,1.7813,1.7829,1.7858,1.7863,1.7903,1.7912,1.792,1.7954,1.7957,1.7996,1.7996,1.8051,1.8046,1.8044,1.8042,1.8076,1.8072,1.819,1.8205,1.8107,1.8108,1.8109,0,1.7746,1.778,1.7804,1.7824,1.7837,1.787,1.789,1.7889,1.791,1.7937,1.7962,1.7995,1.8021,1.8076,1.8085,1.8115,1.8109,1.8149,1.8113,1.8112,1.8106,1.8103,1.8106,1.8155,1.8156,1.8157,1.8157,0,1.7838,1.7839,1.7869,1.7899,1.7924,1.7948,1.797,1.7987,1.7989,1.8013,1.8048,1.8068,1.8108,1.814,1.8169,1.818,1.8168,1.8169,1.8178,1.8178,1.8174,1.8174,1.806,1.8165,1.8165,1.8164,1.8164,1.8163,1.7904,1.7932,1.7953,1.7986,1.8003,1.8024,1.8051,1.806,1.8089,1.8122,1.812,1.8158,1.8177,1.8215,1.8228,1.8257,1.8244,1.8258,1.8261,1.8264,1.8266,1.8171,1.8263,1.8263,1.8262,1.8262,1.8262,0,1.7993,1.8006,1.8037,1.8068,1.8094,1.8082,1.8106,1.8127,1.8161,1.8181,1.8207,1.8246,1.8277,1.8288,1.8318,1.8339,1.8334,1.8347,1.8344,1.8346,1.8278,1.8265,1.835,1.835,1.835,1.835,1.835,1.835,1.8043,1.809,1.8093,1.8148,1.816,1.8198,1.8212,1.823,1.8246,1.829,1.8316,1.8324,1.834,1.837,1.8398,1.84,1.8411,1.8425,1.8425,1.836,1.8351,1.8343,1.8331,1.8428,1.8428,1.849,1.8491,1.8491]},{"header":{"parameterUnit":"m.s-1","parameterCategory":1,"la1":30.2991,"la2":30.254,"lo1":-89.0895,"lo2":-89.0444,"dy":0.0017,"dx":0.0017,"nx":28,"ny":28,"refTime":"2025-08-23T09:00:00:Z","depth":0,"parameterNumber":3,"parameterNumberName":"V-component_of_WINDS"},"data":[0,0,0,0,0,0,0,0,0,0,0,0,0,0,0,0,0,0,0,0,0,0,0,0,0,0,0,0,0,0,0,0,0,0,0,0,0,0,0,0,0,0,0,0,0,0,0,0,0,0,0,0,0,0,0,0,0,0,3.5226,3.5227,0,3.5286,3.5287,3.5287,3.5277,3.5276,3.5275,3.5274,3.5331,3.5334,3.5336,0,0,0,0,0,0,0,0,0,0,0,0,0,3.5096,3.5098,3.5226,3.5227,3.5228,3.5286,3.5287,3.5288,3.5277,3.5276,3.5275,3.5274,3.5331,3.5333,3.5336,0,0,0,0,0,0,0,0,0,0,0,0,0,3.5154,3.5099,3.5226,3.523,3.5231,3.5286,3.5287,3.5288,3.5278,3.5276,3.5274,3.5273,3.533,3.5333,3.5337,3.5391,0,0,3.5348,3.535,0,0,0,0,0,0,0,0,3.515,3.5159,3.5228,3.523,3.5231,3.5273,3.5262,3.5322,3.5278,3.526,3.5274,3.5272,3.5313,3.5318,3.5332,3.5394,3.5396,3.5349,3.5351,3.5352,3.5354,0,0,0,0,0,0,0,3.5146,3.5156,3.525,3.5229,3.5231,3.5226,3.5232,3.5273,3.5294,3.5261,3.526,3.5268,3.5313,3.5329,3.5334,3.5397,3.5349,3.5352,3.5354,3.5356,3.5501,3.5502,0,0,0,0,0,0,3.5142,3.5153,3.5248,3.5252,3.5186,3.523,3.5237,3.5261,3.5294,3.5297,3.5269,3.5267,3.5323,3.5329,3.5336,3.5398,3.5352,3.5356,3.5358,3.5499,3.5501,3.5503,0,0,0,0,0,0,3.5139,3.5151,3.5245,3.5202,3.5214,3.5234,3.526,3.5263,3.5278,3.53,3.5303,3.5282,3.5322,3.533,3.5376,3.54,3.5358,3.5361,3.5497,3.55,3.5502,3.5525,0,0,0,0,0,0,3.5136,3.515,3.5173,3.5203,3.5216,3.5288,3.5262,3.5265,3.5285,3.5283,3.5312,3.5316,3.5322,3.5371,3.538,3.5404,3.5364,3.5495,3.5498,3.5501,3.5522,3.5527,3.5532,0,0,0,0,0,3.5131,3.5177,3.5174,3.5185,3.5245,3.5289,3.5296,3.5303,3.5287,3.5309,3.5322,3.5315,3.5396,3.5376,3.5386,3.5411,3.5494,3.5497,3.5501,3.5519,3.5526,3.5532,0,0,0,0,0,0,3.5149,3.5181,3.5178,3.5235,3.5259,3.5287,3.5315,3.5311,3.534,3.5336,3.5342,3.5349,3.5395,3.5408,3.5385,3.5463,3.5442,3.5448,3.5453,3.546,3.5465,3.546,3.5367,0,0,0,0,0,3.516,3.5194,3.522,3.5268,3.528,3.5295,3.5315,3.5318,3.5342,3.5352,3.5369,3.5392,3.5422,3.5442,3.5471,3.5524,3.5528,3.5546,3.5551,3.5555,3.556,3.5584,3.5591,3.5514,3.5514,3.5514,0,0,3.5182,3.5204,3.5225,3.5272,3.5291,3.5324,3.5304,3.5341,3.5364,3.5358,3.5401,3.5414,3.544,3.5488,3.5511,3.5501,3.5582,3.556,3.5563,3.5565,3.5589,3.5596,3.5602,3.5517,3.5517,3.5516,0,0,3.5239,3.5261,3.5301,3.5319,3.5348,3.5358,3.5367,3.5395,3.5403,3.5447,3.5441,3.5469,3.5522,3.5539,3.5555,3.5614,3.5607,3.5623,3.565,3.5673,3.5679,3.5685,3.5702,3.5709,3.5628,3.5628,3.5628,0,3.5262,3.5314,3.5321,3.5358,3.5376,3.5372,3.541,3.5428,3.5465,3.5476,3.5465,3.5529,3.5546,3.5596,3.561,3.5625,3.5633,3.5619,3.5678,3.5684,3.5689,3.5706,3.5713,3.5629,3.5629,3.5629,3.5629,0,3.5339,3.5374,3.5403,3.5438,3.546,3.5498,3.5508,3.5529,3.5529,3.5538,3.5581,3.5601,3.5633,3.5645,3.5646,3.5695,3.5687,3.5677,3.5656,3.5698,3.5713,3.572,3.5631,3.5631,3.563,3.563,0,0,3.541,3.5447,3.5457,3.547,3.55,3.5527,3.5562,3.5593,3.5609,3.5634,3.5661,3.5704,3.5694,3.5712,3.5714,3.5736,3.5776,3.5723,3.5723,3.5729,3.5826,3.5832,3.5839,3.5772,3.5774,3.5775,3.5823,0,3.5467,3.5531,3.5537,3.5593,3.5623,3.5617,3.5647,3.5667,3.5676,3.5701,3.571,3.574,3.5726,3.5736,3.5757,3.5767,3.5795,3.5764,3.5795,3.5796,3.5787,3.5848,3.5855,3.59,3.583,3.5831,3.5832,0,3.5543,3.5569,3.5627,3.5649,3.5662,3.5689,3.5716,3.5741,3.5762,3.5766,3.5785,3.5783,3.5816,3.5795,3.5838,3.5817,3.583,3.5836,3.5838,3.5839,3.5815,3.5848,3.5915,3.592,3.5842,3.5841,3.584,0,3.5584,3.5634,3.5674,3.5687,3.5714,3.5732,3.5744,3.5764,3.5781,3.5804,3.5814,3.584,3.5854,3.5873,3.5878,3.5863,3.592,3.59,3.5922,3.5922,3.5933,3.5932,3.6,3.5946,3.5946,3.5946,3.5946,0,3.5646,3.5681,3.5692,3.5717,3.5755,3.576,3.5797,3.5807,3.5824,3.5849,3.5846,3.5868,3.5874,3.5897,3.5901,3.5934,3.5941,3.5944,3.5944,3.5943,3.5942,3.595,3.5946,3.5947,3.5947,3.5947,3.5946,0,3.5698,3.5708,3.5751,3.5772,3.5778,3.5805,3.5822,3.5844,3.5852,3.5882,3.589,3.5901,3.5928,3.5935,3.5967,3.5969,3.6007,3.6006,3.6,3.5999,3.602,3.6017,3.6093,3.6102,3.6045,3.6045,3.6046,0,3.5736,3.5762,3.5786,3.5802,3.5815,3.5842,3.5858,3.5863,3.588,3.5904,3.5922,3.5948,3.5969,3.6012,3.6022,3.6045,3.6042,3.6067,3.6046,3.6042,3.6039,3.6036,3.6037,3.6071,3.6071,3.6072,3.6072,0,3.58,3.5802,3.5827,3.5852,3.5872,3.5892,3.5912,3.5925,3.5932,3.5951,3.5978,3.5994,3.6025,3.605,3.6073,3.6083,3.6078,3.6079,3.6085,3.6083,3.6077,3.6077,3.6008,3.6077,3.6076,3.6076,3.6076,3.6076,3.5844,3.5866,3.5885,3.5911,3.5926,3.5943,3.5963,3.5973,3.5996,3.6022,3.6023,3.6051,3.6068,3.6098,3.6109,3.613,3.6122,3.6132,3.6133,3.6135,3.6135,3.6076,3.6135,3.6135,3.6134,3.6134,3.6134,0,3.5905,3.5917,3.5941,3.5967,3.5986,3.5981,3.6,3.6017,3.6042,3.6058,3.6078,3.6107,3.6131,3.6142,3.6164,3.6178,3.6176,3.6184,3.6181,3.6183,3.6143,3.6134,3.6185,3.6185,3.6185,3.6185,3.6185,3.6185,3.594,3.5975,3.5979,3.602,3.603,3.6058,3.6069,3.6084,3.6097,3.6129,3.6148,3.6156,3.6169,3.6191,3.6211,3.6214,3.6221,3.6229,3.623,3.6192,3.6186,3.6181,3.6173,3.6231,3.6231,3.6268,3.6269,3.6269]}]]